Retour au catalogue

NOAA 17 DEB

ActifSSO
NORAD 49479·DEBRIS·🇺🇸 United States

Lancé Jun 24, 2002 depuis Vandenberg Space Force Base

Loading…

Prochains Passages (prochaines 24 heures)

TLE

FraisSource: Space-Track

Époque: Sep 11, 2026, 14:06 UTC

1 49479U 02032DH  26254.58796453  .00000475  00000-0  13933-3 0  9994
2 49479  98.8060 302.5431 0063360 124.8278 235.8895 14.47528388277392

Suivez NOAA 17 DEB en temps réel avec AllMySat

Download on the App Store